GFSWCAN_925_thetae_021.txt.gz
Theta_e
303 303 305 303 303 302 300 298 297 298 299 299 299 300 301 301 302 303 303 302 300 300 301 299 300 303 305 306 308 309 306 306 304 306 307 309 310 314 315 314 313 314 315 317 317 318 319 312 310 322 322 321 323 321
303 304 303 302 301 299 296 297 296 297 297 299 299 300 300 301 301 303 304 302 301 301 301 301 300 301 303 304 306 308 308 306 307 307 306 309 311 312 313 316 310 313 312 314 313 314 308 306 309 315 319 320 320 320
303 302 302 301 298 295 297 298 297 296 297 298 298 300 301 301 301 302 303 303 301 300 300 300 302 304 305 304 304 307 304 304 306 306 307 309 309 310 313 313 311 311 311 312 314 308 307 313 317 318 318 319 319 320
302 301 300 296 295 296 297 297 296 297 297 297 298 299 300 301 300 301 303 302 300 300 302 302 305 305 306 306 306 307 304 304 302 305 308 309 310 310 313 312 314 313 313 315 311 311 312 316 316 317 317 318 318 317
300 297 294 294 295 295 296 296 296 296 297 298 298 299 300 300 300 300 301 301 301 301 305 304 304 306 306 307 307 306 305 305 305 306 309 310 309 314 311 311 313 313 315 316 314 314 316 316 316 317 315 315 315 315
294 294 294 295 295 296 296 296 295 296 296 297 297 298 299 299 300 301 302 304 301 300 303 307 302 304 306 307 307 305 305 306 307 308 308 305 307 312 310 311 312 311 312 311 313 313 314 314 314 315 315 313 313 313
292 294 294 294 295 295 295 296 296 296 296 296 297 299 300 300 300 302 302 304 302 300 305 307 302 303 307 308 307 306 307 309 309 311 310 307 308 309 308 311 312 311 311 310 311 312 313 312 313 312 313 311 311 311
293 293 293 294 294 294 294 295 295 295 294 297 299 302 303 303 302 301 304 304 303 304 307 307 305 304 308 310 310 305 310 310 312 313 307 308 307 306 309 310 311 310 309 309 309 309 310 309 309 310 310 310 310 310
292 293 293 293 294 293 293 294 296 296 297 298 301 305 304 304 303 307 308 308 305 307 308 308 305 302 306 310 309 307 308 313 307 312 308 307 306 307 309 310 310 309 309 308 309 308 308 309 309 308 308 309 309 309
292 292 293 293 293 293 295 296 297 296 295 298 303 306 309 303 304 307 307 307 307 307 308 308 303 305 306 308 310 309 308 311 313 308 307 303 305 308 308 309 307 308 308 307 308 309 309 309 308 307 308 309 308 307
292 292 292 292 293 294 296 297 295 295 295 295 295 301 300 302 305 308 310 309 307 309 306 306 303 304 304 308 308 307 303 305 307 310 310 307 307 310 309 310 308 308 308 307 308 308 308 308 307 307 308 307 306 305
291 292 292 292 293 295 295 294 294 293 294 293 294 295 299 302 305 309 309 311 310 309 306 306 307 305 304 306 306 304 305 303 311 307 310 307 308 309 309 310 308 306 306 308 308 308 307 307 307 306 306 305 305 305
291 291 292 292 293 294 294 293 293 292 292 297 300 302 304 305 307 309 307 308 313 313 313 313 314 310 308 306 305 302 307 305 304 302 310 308 309 309 309 309 307 305 306 308 308 308 307 307 307 306 305 305 305 304
291 291 292 293 294 294 294 294 294 293 294 300 304 306 305 303 304 305 306 308 311 312 312 312 310 313 308 308 307 310 307 304 303 306 306 308 309 308 309 309 307 306 306 307 307 306 306 306 305 305 305 306 305 303
291 291 292 293 294 293 291 292 293 293 295 298 302 304 304 303 302 304 307 308 309 307 308 310 310 311 309 311 309 307 311 306 305 304 301 307 310 313 312 311 309 307 306 305 305 304 306 306 305 304 305 305 304 303
291 291 294 294 291 290 292 293 293 294 296 297 298 303 302 302 302 302 302 302 303 303 303 309 311 312 311 310 310 311 305 304 304 302 304 307 309 309 311 311 310 308 306 305 306 306 306 306 305 304 305 304 303 301
292 291 290 291 291 292 293 294 295 296 297 299 300 302 302 301 302 302 301 300 298 300 306 309 312 313 311 310 309 305 305 304 303 304 305 307 308 307 308 309 310 309 306 305 306 306 306 306 305 304 303 303 302 300
291 291 291 291 293 293 294 295 297 299 300 299 299 299 298 299 299 299 298 298 300 302 307 310 311 314 313 311 308 309 306 305 304 306 306 307 307 307 308 308 310 309 306 306 306 306 306 306 304 303 303 303 302 300
291 292 291 291 293 294 293 294 297 298 298 297 296 296 296 297 297 298 299 300 299 300 303 308 310 313 311 308 307 307 307 308 308 308 307 307 307 308 310 309 310 309 307 307 306 305 305 305 305 304 303 302 301 300
291 290 291 292 291 294 294 294 295 296 297 298 296 297 296 295 296 297 297 298 299 301 305 308 307 308 311 309 309 310 310 309 307 308 309 307 307 309 308 307 307 308 307 306 306 306 304 303 305 304 303 301 301 299
291 291 291 291 291 291 292 293 294 294 295 296 297 295 295 294 295 294 294 296 298 299 302 303 303 302 303 307 308 309 309 307 307 308 308 308 306 308 308 308 308 307 306 305 305 304 303 303 303 303 302 301 300 299
291 291 291 292 292 293 291 292 292 293 294 294 295 294 294 294 296 296 296 297 298 298 299 300 303 304 305 305 304 306 308 308 307 307 307 307 307 307 307 308 306 306 306 306 305 304 303 303 303 302 301 300 299 298
292 293 292 292 293 291 289 292 293 294 296 296 294 296 296 295 297 297 298 297 300 301 301 302 302 303 303 304 307 307 307 307 306 306 306 308 308 310 309 309 308 307 306 306 306 305 303 303 303 301 300 299 299 298
292 293 291 292 293 291 292 292 292 294 294 295 292 295 295 296 296 298 300 302 302 301 301 301 302 303 303 304 305 306 307 307 306 307 308 308 307 307 308 308 309 309 308 307 305 303 303 302 301 300 299 298 298 297
293 287 291 291 291 294 294 294 295 294 293 293 294 295 299 299 298 300 302 301 300 301 300 300 300 302 303 304 304 304 305 305 305 306 307 308 308 308 308 309 308 309 308 305 303 303 302 301 301 300 299 298 297 296
290 288 289 293 293 294 294 294 291 289 292 293 294 296 298 299 301 302 301 300 299 300 301 299 299 301 303 305 305 306 305 305 305 305 306 307 308 308 308 307 305 305 307 306 304 303 302 302 301 299 298 298 297 295
289 289 291 293 293 293 293 292 290 289 293 295 296 297 297 298 301 300 298 294 296 296 298 299 298 299 301 300 300 300 300 301 303 307 308 308 309 309 309 308 307 306 307 306 304 303 302 301 299 299 298 298 297 296
292 292 293 292 294 293 294 293 292 292 293 295 296 297 298 299 295 293 294 291 292 293 295 296 296 296 298 299 298 298 299 300 304 305 306 304 306 307 308 308 307 306 306 305 305 305 302 300 299 298 298 297 296 295
292 291 293 294 294 294 294 294 293 292 292 293 296 297 298 292 290 291 290 290 291 292 293 294 294 294 294 295 297 297 296 297 301 304 304 304 303 302 302 306 306 305 306 305 304 303 301 300 300 299 298 297 296 295
291 291 294 295 295 296 295 292 291 290 291 292 293 295 293 291 289 288 289 289 290 291 292 293 293 293 293 293 293 293 295 292 292 296 303 303 302 301 300 300 301 302 302 302 301 299 298 299 297 296 295 294 293 293
291 294 296 295 296 296 296 293 292 292 291 293 295 295 294 291 289 288 288 288 290 291 290 291 291 290 291 291 291 290 290 290 291 294 297 298 299 300 298 298 299 299 301 301 300 298 296 295 294 293 292 292 292 291
295 296 297 298 297 295 296 295 293 294 295 294 293 296 294 291 289 288 287 287 288 290 289 289 288 288 288 288 288 289 289 288 288 291 294 296 296 296 297 298 298 298 298 297 296 295 294 292 291 291 291 290 290 290
291 294 295 295 295 296 297 296 295 295 293 291 290 291 290 287 286 287 286 285 286 286 286 287 287 286 286 287 287 287 287 288 290 291 292 294 295 295 294 294 294 295 295 293 292 291 291 291 290 289 289 288 287 286

GFSWCAN_925_thetae_024.txt.gz
Theta_e
305 304 303 303 303 302 301 297 297 297 296 298 299 299 300 300 301 302 304 303 301 301 301 302 300 300 300 303 306 305 306 302 303 306 308 308 309 311 314 313 313 314 313 315 315 314 314 309 309 316 318 319 321 320
304 304 303 303 302 300 297 297 297 298 297 297 298 298 299 301 301 301 302 303 302 300 301 302 302 302 301 301 303 306 308 306 307 307 305 309 310 311 313 315 309 313 309 312 312 313 308 304 304 306 307 309 321 321
304 303 302 301 299 296 297 296 296 297 298 297 298 299 299 299 300 301 301 302 301 301 301 297 300 303 302 301 300 304 306 303 306 306 307 309 308 309 313 314 310 310 310 310 310 305 303 307 316 313 314 319 318 318
303 302 300 297 296 296 296 296 296 297 297 297 298 298 299 299 300 300 301 301 302 301 302 300 302 303 304 304 302 301 304 304 303 305 307 308 309 310 313 313 313 313 314 315 311 309 313 313 316 316 316 316 316 316
301 299 295 295 295 295 295 295 295 296 296 297 297 297 298 298 299 299 299 300 301 301 303 303 301 303 305 305 304 303 304 306 306 307 308 310 308 312 310 309 314 313 315 315 314 315 314 314 316 314 315 315 315 315
296 294 294 294 294 294 294 295 295 295 295 296 296 297 298 299 299 300 302 303 302 301 301 305 301 302 304 306 305 305 306 306 307 308 309 306 305 311 310 310 310 311 311 311 313 313 313 314 314 313 313 314 313 313
293 293 293 293 293 294 294 294 294 295 296 296 296 296 298 300 300 301 302 303 302 300 302 307 302 301 305 306 305 304 306 308 308 310 311 305 306 310 309 309 310 310 309 310 310 310 311 311 312 311 311 311 311 310
292 293 293 293 293 293 294 294 296 297 295 295 295 298 301 302 301 302 303 302 300 301 304 308 305 301 306 310 310 304 309 309 311 312 310 308 305 304 309 308 309 308 308 309 308 308 308 308 308 309 309 310 309 309
292 292 292 293 293 293 294 295 296 295 295 294 297 304 304 303 302 305 307 307 302 303 308 307 304 301 303 309 308 309 309 313 308 313 308 306 305 307 307 308 309 308 308 308 307 306 307 309 309 308 307 305 305 307
292 292 292 292 292 293 294 295 295 294 293 294 298 303 308 302 301 305 308 307 304 305 307 310 305 304 303 305 306 307 308 310 312 308 306 302 304 306 306 307 306 307 307 306 308 309 308 307 308 307 306 305 304 304
291 292 292 292 292 292 294 295 293 294 292 292 291 298 298 299 304 307 309 309 306 306 304 305 305 306 302 304 303 305 304 304 307 306 310 306 304 307 307 308 307 307 306 307 306 306 305 306 306 306 305 304 303 302
291 291 291 292 292 293 294 294 294 294 294 294 293 294 297 300 302 308 307 308 309 307 306 308 308 304 302 302 306 305 305 303 310 305 308 308 307 307 308 309 308 304 306 307 306 306 305 305 304 304 304 303 302 301
290 291 291 292 293 294 294 294 294 294 294 296 297 300 303 303 300 306 305 308 312 312 313 312 310 311 307 307 305 302 307 305 302 301 309 306 306 308 307 307 305 304 306 306 306 306 305 305 304 304 303 302 300 300
291 291 292 292 292 294 294 292 293 294 293 296 300 301 305 301 302 302 303 306 310 310 309 308 312 312 311 310 306 310 306 302 301 305 306 305 307 308 307 306 305 305 306 306 306 305 305 304 303 304 303 301 300 299
291 291 292 293 293 291 290 291 292 294 293 294 298 300 301 301 300 303 306 307 306 304 305 304 308 309 310 312 309 306 309 305 303 303 300 303 306 308 308 308 306 305 305 305 303 304 304 304 303 302 302 300 299 298
291 291 293 291 290 291 292 292 293 294 293 294 295 299 300 301 301 300 300 301 300 299 298 303 309 310 312 309 309 310 306 304 302 299 301 303 307 308 308 308 307 307 305 304 303 305 305 304 303 302 301 299 298 297
291 291 290 291 291 292 292 294 293 295 294 296 297 297 298 299 300 300 299 299 296 299 302 306 310 310 309 311 312 307 304 301 301 302 301 304 307 307 307 309 309 307 305 304 304 305 305 304 303 302 301 299 297 297
291 291 291 291 292 293 293 293 295 296 297 296 297 296 297 298 299 298 297 296 298 300 302 305 308 312 311 311 307 307 305 305 303 304 304 305 306 305 307 308 309 308 306 304 305 305 304 303 302 301 300 298 297 296
291 291 291 291 292 293 292 292 294 296 295 295 295 295 296 296 295 296 296 297 297 298 300 303 305 306 308 307 307 306 306 307 307 307 306 306 306 306 307 308 309 308 306 305 304 304 304 304 303 302 300 299 297 295
291 291 291 292 291 292 292 292 293 293 294 295 295 296 296 295 295 295 295 294 294 300 304 304 304 303 305 306 306 306 306 308 308 309 308 307 307 308 307 307 307 308 306 306 305 304 303 303 303 301 301 299 297 295
291 291 291 291 291 291 290 290 291 291 292 293 294 292 293 293 293 293 294 294 296 296 299 299 301 301 302 303 304 303 304 306 307 308 309 307 306 307 307 307 308 306 305 303 303 302 303 303 302 301 300 299 298 296
291 291 291 291 291 291 290 291 290 290 291 293 293 293 292 294 295 296 296 296 296 301 300 301 301 302 302 303 303 303 304 305 306 308 307 306 307 306 306 307 305 304 305 305 305 304 302 303 302 301 300 298 297 295
292 292 292 292 292 288 288 290 292 292 294 293 292 292 293 294 296 296 296 297 301 301 299 300 300 301 302 302 302 304 305 304 304 304 306 305 307 307 308 308 307 306 306 305 305 304 302 302 301 300 299 297 296 294
291 292 292 292 292 291 291 292 288 291 292 293 292 293 295 296 298 297 300 302 301 300 301 300 300 300 302 302 303 304 303 304 304 305 306 305 305 306 308 308 308 308 307 306 305 303 302 301 300 299 297 296 295 294
291 286 290 290 290 292 293 294 293 290 293 293 293 293 295 298 299 301 302 297 296 298 298 300 298 298 300 301 301 301 301 301 301 303 305 305 306 307 306 307 307 307 307 305 303 302 302 300 300 299 298 297 295 294
288 287 288 291 292 293 293 293 291 290 292 293 294 295 296 298 300 301 298 294 294 294 294 295 297 296 298 300 300 299 299 299 299 300 303 305 306 307 307 306 306 305 307 306 304 303 302 301 300 298 297 297 296 295
288 286 290 291 291 293 293 292 291 290 292 294 296 296 297 298 295 293 294 293 292 291 292 294 295 295 296 296 297 297 296 296 298 301 302 305 306 308 308 308 307 308 307 305 304 303 302 301 300 299 297 296 296 296
290 290 292 291 294 293 294 293 293 292 293 293 294 297 297 295 291 290 293 290 290 291 292 293 293 293 294 293 294 294 292 293 299 303 303 303 302 304 306 308 308 308 306 305 304 304 303 303 300 298 297 296 295 296
291 288 291 292 293 292 293 293 293 291 291 291 293 295 295 290 289 289 289 289 290 291 291 292 291 291 292 291 292 291 290 290 292 296 300 301 301 300 299 303 304 306 306 304 304 303 304 301 300 299 298 297 296 295
290 289 291 292 294 295 296 293 291 290 289 291 291 291 290 289 287 287 287 288 290 290 290 290 289 289 290 290 290 290 290 288 288 290 292 294 297 297 297 298 301 303 303 303 304 305 301 299 298 298 297 296 294 293
289 292 295 292 293 294 296 295 293 291 290 291 294 295 290 290 288 286 285 286 287 288 287 287 287 287 288 288 288 288 288 287 286 288 289 291 293 294 295 297 298 299 300 301 301 297 296 296 295 294 293 292 291 291
295 295 296 296 293 292 295 295 292 293 291 293 292 294 291 288 286 285 284 284 285 285 286 286 286 286 285 285 284 284 285 285 285 285 288 291 293 293 293 295 298 298 297 296 295 296 296 294 292 291 291 291 290 290
291 293 293 294 290 293 293 295 297 293 291 290 289 290 289 287 286 286 284 283 283 283 284 285 284 284 284 283 282 283 284 285 286 288 290 291 292 293 293 292 292 293 295 294 292 292 292 293 291 290 289 289 288 287

GFSWCAN_925_thetae_030.txt.gz
Theta_e
303 303 303 303 303 302 300 297 297 297 297 297 297 297 298 298 299 300 302 303 302 303 303 303 304 304 305 304 306 306 308 311 312 314 313 313 314 313 314 314 314 316 317 319 316 317 318 311 310 316 315 318 318 319
303 303 303 302 302 299 297 295 295 296 296 296 296 297 297 297 299 299 301 302 302 303 304 302 302 302 303 303 305 304 308 308 310 312 313 314 315 313 314 320 310 317 311 314 313 315 310 308 305 307 311 315 315 316
303 303 302 301 299 296 294 295 295 295 295 295 296 296 296 297 297 298 300 301 302 303 304 305 308 306 305 305 305 306 307 309 309 308 308 311 314 313 318 317 314 313 310 311 311 313 309 309 313 310 307 311 311 310
303 302 302 299 295 294 295 294 294 295 295 296 296 297 297 297 297 297 299 300 301 302 304 307 305 306 306 305 305 305 306 308 308 307 309 310 313 312 315 315 316 315 315 314 314 314 312 312 312 313 313 311 313 318
303 302 300 294 292 294 294 294 294 295 295 296 297 298 298 298 297 298 300 300 299 302 304 306 304 307 307 307 306 305 306 306 306 308 310 311 313 313 315 316 316 314 314 316 315 315 312 313 311 311 313 313 313 314
302 300 293 291 293 294 293 294 294 294 295 297 297 296 297 297 297 299 302 302 301 300 302 306 307 308 308 309 309 307 305 305 305 310 311 311 312 312 316 317 314 313 313 312 314 312 312 310 308 307 309 311 311 312
301 294 290 292 293 293 293 293 294 294 296 296 295 294 294 296 298 301 306 303 302 300 303 306 308 310 307 310 310 308 306 307 307 311 313 314 313 311 316 316 313 312 312 311 311 311 311 310 307 307 308 309 310 310
296 291 292 293 293 293 293 293 294 295 295 293 292 292 302 302 299 300 301 301 301 301 302 307 309 311 309 314 315 310 311 309 310 312 315 315 314 315 317 314 312 311 311 310 309 311 310 309 306 306 308 310 310 309
291 291 292 293 292 293 293 293 295 295 293 292 291 302 303 304 303 304 301 303 302 302 306 308 310 313 309 311 314 312 311 314 312 314 314 313 316 317 315 313 312 311 312 311 309 308 308 308 306 306 308 309 311 308
291 291 292 292 292 292 293 294 295 294 293 293 295 302 307 305 299 300 303 304 302 303 304 308 309 311 310 311 312 315 315 316 317 315 313 316 318 316 313 312 312 311 311 311 311 309 309 308 305 305 306 307 308 306
291 291 292 292 292 292 293 294 294 293 295 296 296 298 298 296 303 307 308 308 305 307 306 308 309 310 309 312 313 311 316 315 316 316 316 317 318 316 314 312 312 312 312 311 310 308 308 306 305 305 305 306 305 305
290 291 291 292 292 293 294 293 294 294 295 295 295 295 296 300 304 306 308 308 309 309 309 310 309 307 308 309 312 315 316 315 315 312 315 316 315 315 312 312 312 312 312 311 309 308 307 305 303 304 305 305 305 305
291 291 291 292 293 293 293 293 293 294 294 296 296 297 301 304 305 304 305 307 310 311 307 308 312 312 308 308 312 314 316 316 313 314 314 314 316 314 313 312 313 312 312 311 310 308 306 304 303 303 304 303 302 303
291 291 292 292 293 293 293 293 293 294 295 297 299 303 303 303 303 305 307 309 309 307 308 306 307 310 310 305 307 313 315 313 316 316 313 312 314 315 313 312 313 312 312 311 310 309 306 304 303 303 303 302 301 301
291 291 292 293 291 292 293 293 293 295 296 296 297 300 302 303 303 305 301 304 304 304 303 303 305 308 312 310 310 314 316 318 316 316 315 313 314 315 314 313 313 313 312 311 310 310 308 304 303 303 302 302 301 301
290 291 293 290 291 293 293 293 294 294 296 296 297 298 298 299 300 300 302 303 301 302 302 303 305 309 313 314 314 316 316 318 318 316 313 312 315 316 315 314 313 313 313 312 311 309 308 306 304 303 302 302 301 300
291 293 291 290 292 293 293 294 294 294 296 297 298 298 299 300 299 299 300 300 300 301 302 304 307 310 313 313 315 315 316 316 315 314 314 314 314 316 315 314 313 313 313 311 311 310 309 306 304 303 304 302 301 300
293 292 292 293 293 294 294 294 295 295 296 297 297 297 297 297 297 298 298 299 300 300 301 304 305 308 309 310 312 314 314 312 312 312 312 313 314 315 315 314 312 311 312 312 311 310 309 308 307 305 303 302 302 301
292 292 292 291 292 294 294 295 296 297 296 296 297 297 297 297 297 297 298 298 299 300 300 302 304 304 305 309 309 310 310 310 311 311 312 313 314 313 314 314 313 313 312 312 312 311 310 310 308 305 304 303 302 302
291 291 291 291 291 294 294 295 295 296 296 296 296 296 296 297 297 297 298 298 299 299 299 300 301 305 306 306 306 307 308 308 309 310 310 311 312 313 313 313 314 313 312 312 312 311 311 310 308 306 305 304 303 302
292 292 292 292 293 293 294 294 295 295 296 296 296 296 296 297 297 299 299 298 300 300 300 302 303 303 304 304 304 305 305 307 307 310 310 311 311 311 313 313 314 313 313 312 312 311 310 310 309 307 304 305 302 301
293 291 293 292 293 294 295 294 295 295 295 296 297 296 297 298 298 300 300 300 301 297 298 299 299 300 302 303 303 303 303 304 304 306 308 308 311 312 312 312 313 314 313 313 312 311 310 310 309 307 306 304 302 300
292 292 293 293 293 293 294 294 295 295 296 296 297 296 297 297 298 298 298 296 297 295 294 295 295 296 298 300 301 301 301 302 303 303 304 305 307 309 311 311 311 312 314 313 312 311 311 310 308 307 305 303 301 299
291 293 293 294 294 294 295 296 296 296 296 296 296 296 297 297 298 299 297 296 296 294 294 294 294 296 296 297 297 297 297 297 297 298 302 303 306 307 308 310 312 312 312 313 312 311 311 309 307 306 305 304 302 300
292 292 293 291 294 294 294 295 295 295 295 296 296 297 298 298 300 298 296 295 294 295 293 293 293 295 296 295 295 294 293 292 293 295 297 300 303 304 307 310 312 312 312 313 312 311 310 308 307 306 305 304 303 302
292 292 294 295 296 296 296 295 295 295 295 295 296 297 298 300 298 297 296 294 293 293 292 292 292 293 294 292 293 292 291 290 290 293 296 300 301 303 304 306 311 313 312 312 312 310 309 308 307 306 305 304 302 301
293 294 295 294 296 296 295 296 295 295 295 295 297 297 298 297 296 295 293 292 291 291 291 291 291 291 292 292 291 291 290 290 290 291 295 297 299 298 299 302 304 306 308 311 311 310 310 309 307 306 305 304 302 301
295 295 296 296 296 295 295 295 295 295 295 295 297 298 296 295 294 292 292 290 289 290 290 290 290 290 291 291 291 291 290 289 290 292 293 293 292 295 292 295 299 301 305 308 311 311 310 309 308 307 306 304 302 301
295 295 295 294 294 294 295 296 296 296 295 295 296 296 293 291 289 289 289 289 289 289 289 290 290 289 290 290 291 291 290 288 288 291 291 290 289 290 289 291 294 298 301 307 308 309 309 308 307 305 303 302 302 301
295 296 297 296 296 297 298 298 298 297 296 296 295 293 291 289 288 288 289 289 289 289 289 289 289 288 288 288 288 289 289 288 287 286 287 288 287 287 288 290 291 293 298 302 307 305 306 304 304 303 301 300 299 299
297 297 297 297 298 298 298 298 298 296 296 296 295 294 293 290 288 287 287 288 288 288 287 287 288 287 286 286 286 287 287 286 286 286 284 285 286 286 287 288 289 292 295 299 304 303 303 302 301 299 298 298 296 296
297 297 297 296 297 298 297 297 297 296 296 296 294 293 293 292 291 287 285 286 286 286 285 285 286 286 285 285 285 285 284 285 285 284 284 285 285 285 287 288 288 290 291 294 295 298 300 299 297 298 298 297 296 296
296 296 296 296 297 297 298 296 296 296 295 294 293 293 292 291 289 287 285 285 284 284 284 285 285 285 284 284 284 284 284 284 283 283 284 284 284 285 286 287 287 287 287 287 288 288 288 290 289 290 291 291 292 291

GFSWCAN_925_thetae_033.txt.gz
Theta_e
304 303 303 304 303 303 301 298 295 296 296 296 297 297 297 297 297 300 302 303 305 306 307 306 307 306 306 307 308 308 310 313 313 316 314 315 317 316 317 316 323 318 318 321 319 318 319 313 313 316 315 317 316 319
304 303 303 303 303 302 298 295 295 295 295 296 296 297 297 297 297 297 299 302 305 305 305 304 303 304 304 305 307 306 309 308 312 315 314 315 317 316 317 318 313 318 315 316 314 316 314 312 310 308 307 308 313 316
303 303 303 303 302 298 293 295 295 295 295 296 296 297 297 298 297 297 298 299 302 304 304 307 311 308 308 307 306 307 308 308 310 308 310 311 316 315 319 318 319 314 313 310 312 314 313 312 311 311 313 315 313 315
303 303 303 302 299 292 293 295 294 295 295 296 296 297 298 299 299 298 299 300 303 302 305 310 308 308 308 307 307 307 308 310 310 309 309 311 313 314 317 316 318 317 315 315 314 312 313 312 309 309 313 313 312 314
303 303 303 301 292 291 294 294 294 294 295 295 297 298 297 298 298 297 298 299 300 301 307 307 305 309 309 309 309 308 308 310 310 308 310 312 312 314 316 316 319 314 315 315 315 313 313 310 309 308 310 313 313 315
303 303 301 293 291 292 294 294 294 295 295 295 297 297 297 297 297 299 303 304 302 300 302 307 309 310 310 311 310 310 309 309 307 308 311 311 314 315 317 318 314 312 312 310 312 311 311 308 307 308 309 312 311 313
303 301 296 291 291 293 294 294 294 295 295 296 296 296 296 296 298 301 306 303 303 301 302 306 310 311 311 311 312 312 309 308 307 308 311 314 316 315 317 319 313 311 312 311 310 311 310 309 309 309 311 311 309 310
302 298 292 291 293 293 293 294 294 295 296 294 293 293 296 302 300 302 303 301 302 301 302 307 310 312 312 315 316 312 311 310 310 311 313 316 317 316 317 316 312 312 310 312 309 310 309 307 308 309 309 311 308 310
300 294 291 292 293 293 293 294 294 295 293 294 294 299 302 302 304 305 303 302 301 302 306 307 311 314 312 312 316 315 315 314 312 314 316 316 316 318 317 314 312 312 311 311 308 308 307 307 308 308 308 309 308 308
296 291 291 292 293 292 293 294 294 293 295 297 299 303 309 304 302 300 303 305 302 303 302 306 309 311 310 311 313 318 317 318 318 317 315 317 318 318 315 313 312 312 311 310 308 308 307 306 307 308 308 307 306 307
291 291 292 292 293 293 294 294 294 293 298 298 299 301 299 297 300 306 308 308 306 307 305 308 309 310 310 313 314 314 316 317 318 318 315 319 319 317 314 313 312 312 311 310 309 307 306 306 306 307 307 307 305 304
290 291 292 292 293 294 293 293 293 295 296 295 295 296 298 302 304 305 309 309 311 311 312 313 312 310 311 309 313 315 317 317 316 314 315 318 315 314 313 313 312 312 311 311 309 306 305 304 306 306 306 307 305 304
290 291 292 292 293 293 294 293 294 294 294 298 298 300 303 305 306 307 307 308 313 309 308 310 311 312 312 310 313 315 317 318 316 316 315 315 315 314 314 313 313 312 311 311 309 306 304 304 304 305 306 305 305 304
289 291 292 292 293 293 293 293 294 294 297 300 300 307 303 305 306 307 309 307 307 308 307 307 309 311 312 308 308 311 316 316 317 316 316 315 316 314 314 313 312 313 311 310 309 306 305 304 304 304 304 303 304 305
290 291 290 293 290 291 292 292 293 296 298 299 299 302 302 304 303 303 304 305 305 304 305 306 306 308 312 310 306 313 317 318 317 318 318 315 315 316 314 314 313 313 313 311 310 308 306 304 304 304 304 303 303 303
290 292 295 292 290 291 293 295 297 297 298 298 298 299 301 300 300 300 301 302 302 303 303 305 305 308 313 315 313 317 316 320 318 319 318 316 317 317 317 314 314 313 313 312 310 309 307 305 305 304 304 303 302 303
290 296 293 290 291 294 294 296 297 297 298 299 299 299 299 299 299 299 299 300 300 301 302 303 308 311 312 314 315 316 319 314 315 316 316 316 316 316 316 315 314 313 313 312 311 310 308 306 305 305 305 304 303 302
295 295 293 291 293 296 297 297 298 298 298 299 299 298 298 298 299 299 299 299 299 300 300 303 302 305 308 311 315 308 311 311 312 312 314 315 316 316 315 315 313 313 313 312 311 311 310 309 307 306 305 304 304 303
295 294 292 291 292 296 296 297 298 298 298 298 298 299 299 299 299 299 299 299 299 299 300 301 301 302 307 309 308 309 308 308 310 311 311 312 313 313 314 314 313 313 314 313 312 311 310 310 308 307 305 304 304 304
290 291 291 291 292 297 297 298 297 298 298 298 298 299 299 299 299 299 300 300 300 300 299 299 301 305 305 305 305 307 307 308 308 309 310 311 310 311 312 313 314 314 314 313 311 311 311 310 309 308 307 304 304 304
293 294 293 294 296 296 297 297 297 297 298 298 299 299 299 300 301 302 302 303 301 301 301 298 298 300 300 302 303 304 305 305 306 306 309 309 308 310 312 312 313 314 315 313 313 312 311 312 309 309 307 306 304 303
296 292 296 294 297 296 298 297 298 298 298 299 299 299 299 299 301 300 299 299 298 297 297 296 296 297 298 301 301 302 302 302 302 303 304 305 308 310 311 311 311 313 315 314 313 312 312 311 310 309 309 305 304 302
292 294 296 296 296 298 296 297 299 299 298 299 299 299 299 300 300 300 299 298 298 296 295 294 295 296 297 297 297 297 297 296 298 299 301 303 305 307 308 310 311 312 314 313 314 312 312 311 310 310 309 306 304 302
293 295 297 297 298 298 297 299 299 298 299 299 299 299 299 300 300 300 300 298 297 294 294 294 294 295 296 296 296 295 295 293 293 293 296 300 304 306 306 308 309 310 312 313 311 313 313 312 311 310 308 307 305 302
295 294 296 295 298 298 297 298 298 298 298 298 299 299 300 301 301 299 298 296 295 294 294 293 294 294 296 295 294 294 293 292 291 293 293 296 299 303 305 306 308 311 313 313 314 314 312 312 311 310 309 308 306 304
295 294 297 298 299 299 299 298 298 298 298 298 299 300 300 300 299 298 297 295 293 293 293 294 293 294 294 294 295 294 293 292 292 292 293 294 297 297 298 301 304 308 308 305 307 314 313 313 312 310 309 308 306 305
295 296 298 299 300 300 299 298 298 298 298 298 299 299 300 299 299 297 295 294 292 291 291 292 292 292 293 294 293 293 292 292 293 292 292 292 292 294 290 292 295 296 297 301 307 310 313 312 311 310 310 309 307 305
297 298 299 299 299 298 298 298 298 298 298 298 299 300 298 298 298 295 293 291 291 291 292 292 292 292 292 292 292 292 291 291 292 292 293 293 291 291 289 289 290 292 295 299 301 304 308 312 311 311 310 309 307 306
298 299 299 299 298 297 298 299 298 298 298 298 299 299 297 294 292 291 291 291 291 291 291 292 292 291 291 291 291 291 290 290 289 291 292 293 293 291 289 289 290 291 292 295 299 304 307 309 311 311 310 309 307 307
299 299 299 299 298 299 300 300 299 299 298 298 298 297 294 292 292 291 292 291 291 291 290 291 291 290 290 290 290 289 289 288 288 288 288 290 290 289 289 290 290 290 290 294 297 303 307 308 309 309 308 307 305 304
299 299 299 300 299 300 301 299 299 299 299 298 297 297 295 292 290 289 289 290 290 289 288 289 290 290 289 289 289 289 288 288 286 285 285 287 288 288 289 290 290 290 290 290 294 299 302 305 306 304 303 302 302 302
300 300 300 298 299 300 299 299 300 298 297 297 297 295 294 294 293 289 287 288 288 287 286 287 288 288 288 287 287 287 286 287 286 284 283 285 286 287 288 289 289 289 289 289 289 291 296 296 298 301 301 300 300 300
299 299 299 299 299 299 299 299 298 298 297 297 297 296 296 295 292 289 286 286 286 286 286 287 287 287 287 286 285 286 286 286 285 284 283 283 284 284 286 287 288 288 287 287 287 287 286 287 288 289 291 293 294 294

GFSWCAN_925_thetae_036.txt.gz
Theta_e
303 304 304 303 303 303 302 300 293 295 296 296 296 297 298 298 297 298 300 301 305 306 306 306 307 308 309 308 309 309 309 311 313 317 318 316 317 316 318 317 319 319 319 321 319 320 321 314 313 316 314 312 311 313
302 303 303 303 303 303 301 294 292 296 296 296 296 297 298 298 298 298 298 301 302 306 307 304 303 304 305 305 308 308 309 308 309 315 313 315 316 316 317 319 316 319 312 316 314 318 314 312 311 310 309 310 313 312
302 303 303 303 303 302 297 292 294 295 295 295 296 296 297 298 299 299 299 300 300 303 304 306 308 310 308 308 308 309 308 307 310 309 310 312 314 315 319 318 319 315 314 311 312 314 313 312 310 308 308 311 316 314
303 303 303 303 303 301 293 292 294 295 295 295 296 296 297 298 298 298 298 299 300 304 304 308 307 308 308 309 309 308 309 309 310 311 310 311 312 312 316 317 317 316 316 315 314 312 311 312 309 308 308 312 314 315
303 303 303 303 302 296 292 291 294 295 295 296 296 297 297 297 297 297 298 299 300 301 306 306 303 308 311 309 309 309 309 311 312 311 310 311 311 313 315 318 319 315 313 313 314 312 313 311 309 308 309 312 312 314
303 303 303 303 299 293 291 293 294 295 295 296 296 297 297 297 297 298 303 305 302 301 302 305 307 308 309 311 310 310 310 311 310 309 309 310 312 314 317 317 316 313 313 311 312 311 310 309 308 309 311 311 311 311
303 303 303 302 294 291 292 293 294 295 295 296 296 296 297 297 297 301 306 303 303 301 302 305 308 311 311 311 313 313 311 310 309 308 308 310 314 316 318 318 316 312 312 311 310 310 310 308 309 309 311 309 309 309
303 303 302 298 292 291 292 293 294 294 294 292 294 296 296 300 301 302 303 302 302 303 303 306 309 311 312 315 316 314 312 311 310 310 312 314 316 318 318 317 313 312 311 310 309 308 308 308 309 308 308 308 308 308
303 303 301 294 291 291 293 294 294 294 291 295 297 297 302 303 305 305 304 302 302 302 306 306 310 312 311 314 314 315 314 314 311 311 313 317 318 319 318 315 313 312 311 308 307 307 307 308 310 307 307 307 308 307
303 302 297 291 291 292 293 295 295 291 296 298 300 304 308 303 300 301 302 306 303 303 302 305 307 310 309 310 313 317 317 318 318 317 315 317 319 318 317 314 313 312 311 308 307 307 307 308 309 308 307 306 306 306
302 299 292 290 292 292 294 292 291 293 299 298 299 303 301 299 300 303 308 308 305 305 305 307 309 312 311 313 314 315 318 319 319 319 318 320 320 318 316 314 312 312 311 308 307 306 306 307 307 308 306 305 306 305
301 293 290 292 292 292 293 294 292 295 296 295 295 297 300 304 305 306 309 310 311 313 309 312 312 311 311 312 313 316 317 317 317 317 315 320 314 316 315 314 314 311 311 308 305 305 305 306 307 307 307 306 305 304
295 291 291 291 292 293 293 293 292 292 295 300 300 301 304 305 306 307 308 310 310 307 309 310 312 312 312 312 313 315 317 319 318 318 317 319 316 315 315 314 314 312 311 308 306 304 305 305 305 306 307 305 305 305
292 290 290 291 292 292 291 291 291 294 298 303 302 303 302 305 306 306 305 306 305 307 307 305 307 310 313 312 308 312 315 317 318 317 320 316 317 316 315 314 314 313 311 309 307 305 305 305 305 305 305 306 306 304
290 290 290 291 293 290 290 291 294 297 300 301 301 302 303 303 302 302 302 302 303 304 304 304 304 306 311 312 307 310 314 318 318 320 318 318 316 317 315 316 314 314 312 311 308 306 305 305 305 305 304 305 306 304
290 291 292 294 292 290 293 295 298 299 300 300 300 300 301 301 301 301 300 300 301 300 302 303 306 308 309 313 310 315 317 319 318 318 317 318 318 318 315 316 314 314 313 311 309 307 305 305 305 305 304 303 304 305
290 295 296 294 291 294 295 298 299 300 300 300 301 301 301 300 300 299 299 299 299 300 301 304 305 311 309 309 315 306 308 305 310 308 316 317 318 318 316 316 316 314 314 311 311 308 307 306 305 305 306 304 303 303
294 295 294 293 292 297 299 299 300 300 300 301 300 300 300 300 300 300 300 299 300 299 300 301 303 303 305 307 308 305 308 309 310 311 313 314 315 314 314 314 313 314 313 313 311 310 309 307 306 306 306 305 304 303
295 296 294 291 294 297 299 299 299 300 300 300 300 300 300 300 300 300 300 301 300 300 300 301 303 305 307 303 304 304 306 308 309 309 311 311 311 313 313 311 311 314 313 313 313 311 311 309 308 306 305 305 305 304
292 291 291 291 293 299 299 300 298 300 300 300 300 300 300 301 302 302 303 303 303 302 303 303 299 299 300 300 303 304 305 305 306 306 306 307 307 309 313 312 311 309 312 315 312 311 312 310 309 308 305 304 304 304
293 295 294 295 298 299 300 299 300 299 300 300 300 300 301 301 302 301 301 300 300 299 298 296 296 296 297 299 300 301 300 300 302 303 304 305 306 307 310 311 309 311 312 312 312 312 311 311 310 308 306 305 304 303
297 295 298 296 299 298 299 299 300 300 300 301 301 301 301 300 301 300 299 299 298 297 296 296 296 297 298 299 299 298 297 296 297 298 300 301 304 306 308 310 311 313 310 312 312 313 312 311 310 309 308 305 304 302
294 295 298 298 299 298 298 299 301 301 300 300 301 302 301 302 302 301 300 299 298 296 295 295 295 296 297 298 297 296 295 294 294 294 295 297 300 303 305 307 308 311 311 312 312 311 311 311 310 310 308 306 304 302
295 297 299 299 299 300 299 301 301 300 300 301 301 301 301 302 301 301 300 298 296 295 295 295 295 296 296 296 295 295 294 293 294 294 293 296 298 300 301 304 306 308 310 310 312 312 311 312 311 310 309 307 305 303
296 295 297 299 300 300 299 300 300 301 300 300 300 301 302 302 303 301 299 298 295 295 295 294 294 295 296 296 295 295 294 294 295 294 293 293 296 296 296 298 300 303 301 301 303 307 312 310 311 312 310 309 307 304
296 297 298 299 300 301 299 299 300 300 300 300 301 301 302 302 300 300 299 297 295 294 294 294 295 295 295 295 296 295 294 294 294 295 293 292 292 292 291 293 294 295 295 294 298 302 306 312 312 313 311 309 307 305
297 297 298 300 301 301 301 300 301 301 300 300 301 301 302 301 300 299 297 294 293 293 293 293 294 294 294 294 294 293 293 292 293 293 294 293 292 292 291 290 291 291 291 293 297 300 302 306 312 311 312 310 308 307
296 299 300 301 301 301 300 300 299 299 300 300 302 301 300 299 301 296 295 293 293 293 293 293 293 293 293 293 293 292 291 290 291 291 292 292 292 292 291 291 291 291 292 292 292 296 300 303 307 310 311 311 308 307
299 300 301 300 300 299 300 300 299 299 299 300 301 301 300 297 294 294 294 293 293 292 292 293 293 293 293 292 292 291 290 289 288 290 290 292 292 291 290 291 291 291 291 291 292 295 297 301 304 309 310 311 310 309
299 300 301 301 299 299 300 300 301 301 300 300 299 297 296 294 294 293 293 293 292 292 292 292 292 292 292 291 291 291 290 289 287 287 288 290 290 290 290 290 290 290 290 291 291 293 298 303 307 308 309 310 310 309
300 300 300 300 300 300 301 301 301 300 300 299 299 298 296 294 292 291 291 291 291 290 290 290 291 290 290 290 290 289 289 289 287 286 285 286 287 288 289 289 290 289 289 290 290 290 293 296 300 304 306 307 308 306
300 300 301 300 301 301 301 301 300 300 298 299 299 297 296 294 294 291 289 289 289 288 287 288 289 289 289 289 288 288 287 288 286 285 284 284 285 285 287 288 288 288 287 287 287 287 288 289 291 296 299 300 300 300
301 300 300 300 300 301 301 301 300 300 299 299 298 298 297 297 293 289 288 287 287 287 288 288 288 288 288 288 287 287 287 287 286 284 283 283 283 284 285 286 287 287 286 285 285 285 286 286 286 286 287 289 290 292

GFSWCAN_925_thetae_042.txt.gz
Theta_e
296 296 298 301 303 303 303 303 303 298 294 296 297 297 297 297 297 298 298 298 299 300 299 299 300 300 301 302 305 302 304 304 304 308 314 311 310 312 310 311 303 307 311 313 316 317 314 311 310 312 311 310 310 309
295 296 298 301 303 303 303 303 302 297 293 295 296 296 297 297 297 298 299 298 297 298 298 299 299 299 300 300 301 299 304 306 307 308 311 311 312 310 309 309 311 312 312 314 313 312 310 310 308 308 310 310 308 308
295 296 298 302 303 303 302 303 302 295 292 295 296 297 297 297 297 297 298 297 297 297 297 297 299 302 302 302 302 303 303 304 306 307 309 310 312 310 311 312 312 313 312 311 311 312 308 308 309 310 310 309 309 310
295 296 299 302 303 303 303 303 301 295 292 295 296 296 297 297 297 298 297 297 297 298 300 297 300 301 301 302 303 303 305 307 305 308 310 310 310 308 311 310 309 310 311 314 313 312 310 308 308 309 309 309 309 311
295 296 299 302 303 303 303 303 299 294 291 295 296 296 297 297 297 297 297 298 297 298 298 299 299 302 302 303 306 304 304 306 307 310 310 310 309 309 310 311 312 314 315 315 314 312 309 309 308 309 309 309 310 310
295 297 300 303 303 303 303 303 296 292 290 295 296 296 296 297 296 297 296 302 300 298 300 301 298 300 302 306 307 306 306 307 308 310 310 309 308 308 311 313 313 314 314 312 313 310 307 308 308 307 308 309 309 309
296 297 300 303 303 303 303 301 293 290 290 294 291 295 296 297 298 297 299 301 301 301 302 302 302 300 304 309 310 309 308 309 310 310 309 310 310 310 312 313 313 314 313 311 309 308 309 309 308 306 307 307 307 308
296 298 301 303 303 303 303 298 291 290 291 290 292 295 297 297 299 299 304 304 302 300 302 304 304 302 305 305 308 310 311 310 310 310 309 310 310 311 315 315 314 313 310 308 306 305 308 309 306 306 307 307 307 307
297 299 302 303 303 303 302 293 290 290 290 294 298 299 300 301 303 305 304 302 302 302 303 304 305 304 302 304 305 306 310 313 310 310 310 311 313 314 316 314 314 308 306 306 306 304 306 308 307 306 306 306 306 306
300 300 302 303 303 303 297 290 290 290 291 295 301 302 305 305 304 301 302 304 302 302 302 303 303 306 306 307 310 309 309 314 313 313 311 313 314 315 314 313 311 307 306 305 305 305 304 309 307 307 306 305 305 305
300 301 303 303 303 302 291 289 290 290 293 293 295 297 298 299 300 298 302 306 304 305 302 303 303 307 304 310 310 309 309 310 316 312 317 317 313 316 314 313 308 305 304 304 303 304 304 307 307 306 306 305 304 303
301 302 303 303 303 297 290 290 292 291 292 293 294 296 298 300 302 303 304 309 306 309 305 306 304 303 304 305 311 307 311 312 315 314 318 315 314 315 315 313 306 303 304 303 303 304 304 306 306 306 306 304 303 303
301 302 302 303 301 293 289 290 291 292 293 297 298 299 301 301 300 307 305 303 302 303 303 301 300 301 305 303 304 309 311 313 309 310 318 313 307 310 310 313 307 304 304 303 303 304 304 304 305 305 304 304 303 301
301 302 302 302 297 290 290 290 291 294 297 300 304 296 301 304 304 303 299 299 299 298 298 297 298 299 300 303 305 307 308 308 312 312 310 305 303 303 305 313 309 306 304 303 303 304 303 303 303 305 303 303 302 300
302 302 301 301 295 289 291 290 293 295 298 302 300 296 301 300 298 297 296 296 296 295 295 296 296 297 299 304 307 307 310 310 309 306 304 300 298 303 315 314 313 309 305 303 303 303 303 303 302 302 303 303 303 301
301 299 300 297 290 291 291 293 295 297 300 300 299 299 298 298 297 296 296 296 295 295 295 296 300 302 305 305 307 305 304 304 303 302 299 300 302 305 312 312 311 312 306 303 304 304 304 303 302 302 304 303 302 301
299 295 296 291 291 291 294 296 299 300 300 300 299 298 297 296 296 296 295 296 296 296 297 299 301 304 303 304 303 302 303 302 301 302 301 301 302 302 308 312 312 311 312 306 305 304 304 303 303 303 302 303 302 302
293 296 296 293 292 295 296 296 299 301 299 298 298 297 296 296 297 298 298 297 298 299 298 299 302 300 302 301 300 300 299 301 299 298 298 299 299 299 300 309 311 311 311 312 309 305 304 304 302 301 303 303 302 301
293 295 295 294 293 297 300 300 300 300 300 298 298 296 296 298 297 298 297 298 299 298 297 297 298 298 298 299 298 298 299 297 296 296 296 296 296 296 299 303 308 310 311 311 310 309 306 305 304 303 303 303 302 302
295 295 294 292 291 297 301 299 299 298 299 298 296 297 296 297 296 296 295 295 295 295 296 297 296 296 296 296 297 298 296 295 295 295 296 295 295 295 297 301 304 309 310 310 310 310 310 304 305 304 303 302 302 301
295 294 292 291 291 293 299 299 298 299 298 297 297 296 299 297 296 295 295 294 294 295 295 296 296 295 296 297 295 295 294 294 294 295 296 296 295 295 298 299 302 303 306 308 310 311 311 310 305 303 303 302 301 301
293 292 294 295 297 300 298 298 298 298 297 298 298 297 298 297 297 296 294 294 294 296 295 295 295 296 297 295 295 294 294 294 295 295 294 294 296 295 294 296 298 299 298 298 300 303 308 311 310 304 303 302 302 302
295 295 296 298 299 297 297 298 298 299 299 299 297 300 299 299 297 296 295 291 290 295 295 295 295 295 296 295 295 295 294 294 295 295 293 293 294 293 293 294 294 295 294 294 294 297 300 304 309 304 302 302 302 302
295 297 298 300 298 297 299 298 299 300 299 297 299 301 300 299 297 295 293 297 291 294 294 294 294 294 295 295 295 294 293 293 293 294 294 293 293 293 292 292 293 293 293 293 293 294 297 299 302 307 304 301 301 301
293 294 296 296 300 299 301 301 301 299 301 300 301 300 298 297 295 295 295 291 294 293 293 293 293 294 295 295 294 292 290 290 291 293 293 294 291 291 291 292 292 292 292 292 293 294 294 295 297 300 305 304 301 301
294 296 296 298 299 301 300 301 300 300 300 301 300 301 296 297 299 298 293 294 294 293 291 291 291 292 292 292 291 289 288 288 288 289 292 292 291 290 290 291 291 291 290 291 292 293 293 293 295 297 300 306 304 302
296 296 296 297 299 300 300 300 299 299 300 301 300 299 297 294 294 296 291 291 288 293 293 294 293 292 292 291 290 289 288 287 286 287 288 289 289 288 288 290 290 290 289 289 290 290 292 292 293 295 297 299 304 305
295 297 297 296 298 298 300 300 300 300 300 300 300 301 298 296 296 294 292 294 293 293 293 293 293 293 292 291 289 288 287 286 286 285 285 285 285 286 286 288 288 288 288 288 288 288 289 289 290 292 294 296 300 304
296 296 297 298 299 299 300 300 300 299 299 300 299 299 296 294 294 293 294 293 293 292 292 292 291 291 291 290 288 286 286 286 285 284 284 283 284 284 285 286 287 287 286 286 286 286 286 287 290 292 296 298 301 303
296 297 297 300 300 299 300 299 298 297 296 295 294 294 294 292 293 293 293 292 292 291 290 290 290 290 289 288 288 286 285 284 284 283 282 283 283 284 284 285 286 286 285 285 285 284 285 287 290 292 294 297 299 303
297 298 299 300 301 300 299 298 297 295 294 293 294 293 291 290 290 290 290 290 290 290 289 289 289 289 288 287 287 287 285 284 283 283 283 283 283 283 283 285 285 284 284 283 283 282 283 284 284 285 285 287 289 293
297 299 300 300 299 298 298 299 298 295 293 292 291 290 288 288 287 287 288 288 288 288 289 289 289 288 287 287 286 286 284 283 283 283 282 282 282 282 282 284 284 283 283 281 281 281 280 281 282 282 283 283 284 286
295 297 298 298 296 299 298 298 298 298 295 293 292 292 293 289 289 288 287 288 288 288 287 288 288 286 286 285 285 285 285 283 283 283 282 282 282 281 281 281 282 282 281 280 279 279 279 279 279 279 280 281 282 282

GFSWCAN_925_thetae_045.txt.gz
Theta_e
295 295 296 296 298 301 303 303 302 303 300 295 297 297 297 297 297 297 297 298 298 299 297 297 298 299 298 298 300 299 300 301 302 306 314 310 311 310 307 310 304 305 309 313 314 314 313 310 311 312 309 307 310 310
295 295 295 296 298 302 303 303 302 303 299 295 296 297 297 297 297 297 297 297 297 297 296 297 297 298 298 298 301 300 300 302 305 304 307 307 310 308 308 308 309 308 311 313 312 312 309 311 310 308 306 309 310 309
296 295 295 296 298 302 303 302 303 303 299 294 296 297 297 297 297 297 297 297 296 296 294 294 297 300 300 299 299 298 301 302 303 305 306 308 311 310 307 306 305 309 311 311 312 311 309 311 308 308 308 309 309 309
296 295 295 296 298 302 303 303 303 303 298 294 296 296 297 297 297 297 296 296 296 296 298 297 299 299 301 301 301 299 301 303 305 306 308 309 310 308 310 307 309 308 309 313 311 311 312 310 306 307 308 308 308 308
296 295 295 296 298 302 303 303 303 302 296 292 295 297 297 297 297 297 296 298 297 296 298 297 298 301 301 301 302 301 301 304 307 309 310 310 310 309 309 309 311 310 314 312 315 313 311 308 307 308 306 306 308 309
297 296 296 296 299 302 303 303 303 301 293 291 296 297 297 298 297 297 296 301 298 296 299 302 298 298 301 302 307 302 302 302 307 308 310 309 308 308 309 314 310 311 313 312 314 311 309 306 307 306 306 307 307 308
298 296 297 296 299 302 303 303 303 298 290 290 294 295 294 297 298 297 298 301 299 298 301 303 300 299 301 304 304 305 305 306 309 310 309 310 310 309 310 313 310 309 310 311 309 306 306 308 308 306 306 307 307 307
298 297 297 297 299 302 303 303 302 294 290 291 291 296 297 298 298 299 304 303 301 299 302 302 302 300 302 302 306 304 307 309 310 311 310 310 310 310 312 312 312 312 312 309 305 304 307 305 305 307 306 305 306 306
297 297 298 298 300 302 303 303 298 290 290 291 296 299 300 299 301 304 303 302 301 302 301 300 305 303 300 302 302 307 308 312 310 311 311 310 312 313 313 315 313 308 306 305 304 304 306 307 308 307 305 305 306 305
298 297 299 300 301 303 303 301 292 290 290 294 300 302 303 303 303 302 301 304 302 302 302 302 303 304 303 303 308 310 309 313 312 312 311 312 312 307 305 308 311 307 305 304 304 305 304 307 307 306 306 306 305 303
298 297 298 301 302 303 302 296 290 290 292 292 294 298 297 301 301 297 300 306 303 303 301 301 303 304 300 307 308 309 311 308 315 314 314 314 311 305 302 303 306 305 303 302 303 303 305 306 307 306 305 305 304 304
298 298 299 301 302 302 300 292 291 291 292 293 295 296 297 298 300 302 302 307 304 306 304 303 301 300 300 301 308 307 311 312 313 309 316 313 306 303 302 303 303 307 302 302 303 304 305 306 306 305 305 305 303 301
299 299 300 302 302 302 299 290 292 291 293 298 297 299 299 299 300 305 303 301 301 300 301 299 296 296 297 301 301 307 309 310 306 311 312 308 302 301 300 301 305 309 302 303 304 303 304 304 305 304 304 304 301 300
300 300 301 302 302 301 293 291 291 293 297 300 303 296 301 302 302 298 298 297 296 298 295 294 294 296 296 299 303 307 307 308 309 303 305 302 301 300 299 303 311 310 303 303 303 303 303 303 304 303 303 303 301 301
299 299 301 301 302 298 290 291 292 295 298 302 300 297 300 298 297 296 295 295 294 294 293 294 294 295 298 303 305 305 306 302 303 303 302 300 299 299 298 300 309 311 304 302 302 302 302 302 302 303 302 302 301 301
300 301 299 301 300 291 291 292 294 297 299 301 299 298 297 296 296 295 295 295 293 293 293 294 299 301 304 305 302 302 297 302 302 301 299 298 298 297 297 299 306 310 309 302 302 303 302 302 302 303 302 302 301 301
301 300 301 300 291 291 292 295 298 299 301 300 299 297 296 295 296 295 295 297 295 295 296 297 301 298 303 300 298 299 298 299 300 298 297 297 297 296 297 299 304 310 311 310 303 303 302 302 303 302 301 302 301 300
298 300 298 292 292 292 294 295 299 301 300 297 297 297 295 295 297 297 296 295 297 297 296 299 298 296 298 296 298 298 298 299 297 296 296 296 296 296 296 298 302 307 311 310 309 305 303 302 301 301 302 301 300 300
300 297 292 291 294 297 299 298 298 300 300 298 297 295 297 296 295 295 294 295 296 295 295 294 295 296 297 298 297 297 297 295 295 295 295 296 295 296 296 299 302 303 308 309 309 309 305 303 302 302 303 302 300 300
297 295 294 292 295 297 301 300 299 298 299 298 295 296 296 296 294 293 292 292 292 292 295 295 295 296 296 296 297 295 294 294 295 295 296 296 295 296 295 296 299 299 299 299 301 305 309 304 303 302 302 302 301 301
294 294 293 291 291 294 298 299 297 297 297 297 296 298 296 294 294 293 293 291 292 293 293 293 296 295 296 296 294 294 294 294 295 296 295 295 295 294 294 294 296 296 296 296 296 299 300 304 308 304 302 301 301 301
293 292 291 292 297 298 298 297 297 297 296 297 296 297 297 296 295 294 292 292 293 291 293 295 295 296 296 295 295 294 294 293 294 294 293 293 294 293 293 294 294 294 294 294 294 296 297 298 301 303 302 301 300 300
293 296 297 297 299 297 297 297 297 297 299 298 297 298 298 296 295 294 293 288 288 292 295 295 295 295 295 295 294 293 292 292 292 294 294 293 292 292 292 293 293 293 293 293 293 294 295 296 297 301 302 301 301 301
295 296 298 299 297 298 299 298 297 299 298 297 298 300 299 296 294 293 292 287 288 293 294 294 294 294 294 294 293 289 289 290 290 293 292 293 290 290 291 292 292 292 291 291 292 293 294 294 295 297 300 303 301 300
295 296 295 294 298 298 300 300 299 299 300 299 300 300 298 295 293 294 294 289 289 290 293 293 293 293 294 290 289 288 288 288 288 288 292 291 289 288 290 290 291 290 289 290 290 291 291 293 293 295 297 300 301 300
293 294 296 298 299 300 300 301 300 300 300 300 300 299 295 296 299 299 293 289 287 287 289 290 289 289 289 290 287 287 286 286 288 287 287 289 286 286 287 289 289 289 288 288 288 289 289 290 291 292 294 296 298 301
294 295 296 297 299 299 299 299 299 298 299 300 300 298 297 296 296 294 290 289 287 292 293 293 292 291 289 288 288 287 286 285 285 286 285 285 285 285 285 286 288 288 287 287 287 287 288 288 288 289 291 293 295 298
295 296 297 296 296 296 299 299 299 300 299 299 300 301 299 297 297 292 290 292 293 293 293 292 292 292 290 288 287 287 286 286 285 284 284 284 284 284 285 286 286 286 286 286 285 285 285 285 286 287 289 291 293 296
296 296 296 297 298 298 299 299 300 299 299 300 300 299 296 295 291 290 292 293 293 291 289 289 288 289 287 287 286 285 285 285 284 282 282 281 282 283 283 285 285 285 284 284 284 284 283 285 286 287 289 290 293 296
295 295 296 299 299 300 300 299 298 296 295 294 294 293 290 288 289 292 292 291 290 288 289 289 289 289 287 285 284 284 283 283 283 283 280 280 282 282 282 284 284 284 283 282 282 282 285 284 285 285 286 288 289 291
295 297 298 298 300 299 298 296 295 294 294 293 292 291 289 288 289 288 289 289 289 289 288 288 287 287 286 286 285 284 283 283 283 282 282 282 282 281 281 283 283 282 282 281 280 280 280 280 281 282 283 283 284 285
296 297 299 300 298 298 298 297 295 293 292 291 290 289 287 287 288 286 287 288 289 288 288 287 286 285 285 285 285 284 283 282 282 282 282 281 281 281 280 282 282 282 281 281 281 280 279 278 278 278 279 281 282 282
295 297 298 298 297 299 298 298 296 294 294 293 292 292 289 286 285 286 287 287 288 288 287 286 285 285 285 285 284 283 282 282 281 281 281 281 280 280 280 280 281 281 281 280 280 280 280 279 278 278 277 278 279 280

GFSWCAN_925_thetae_048.txt.gz
Theta_e
299 297 295 296 296 296 298 302 303 302 303 301 296 297 297 298 297 297 296 298 298 297 296 296 297 297 296 297 297 297 298 301 301 303 311 310 310 308 306 308 304 306 302 311 311 312 309 311 311 312 311 308 308 308
299 298 296 296 295 296 298 302 303 302 303 301 296 297 297 298 297 297 296 297 296 297 294 296 296 296 297 297 295 297 298 300 303 301 301 303 305 305 306 307 307 302 305 305 310 310 310 310 311 310 309 306 307 308
299 298 297 296 295 296 297 302 303 302 303 301 296 296 297 297 297 297 298 297 296 296 293 292 295 298 298 297 297 297 295 298 300 303 304 305 309 310 308 305 302 306 307 311 311 310 309 310 309 307 306 307 308 306
300 298 297 296 295 296 298 302 303 303 303 300 294 296 297 298 297 297 297 296 296 296 297 295 297 299 299 299 299 297 299 300 300 306 308 308 309 307 311 307 308 308 309 311 312 310 307 308 307 306 305 307 306 307
298 298 298 297 296 296 299 302 303 303 303 300 293 297 297 297 297 297 297 297 297 295 298 297 297 300 300 300 300 299 297 297 303 308 308 310 310 310 309 309 311 309 311 314 314 312 310 307 306 306 306 306 306 307
300 299 297 296 296 296 300 302 303 303 303 299 293 297 297 297 297 297 298 300 298 296 298 301 297 297 300 301 304 301 298 297 304 308 309 309 308 309 309 311 310 310 311 310 311 310 308 305 306 305 307 307 306 307
300 299 298 297 296 298 300 302 303 303 303 297 295 295 297 297 297 297 298 300 299 296 299 303 300 297 300 301 300 302 300 304 306 306 309 310 310 309 307 311 309 309 310 311 308 304 305 304 305 306 306 305 305 306
301 300 299 297 297 299 300 302 303 303 302 292 294 293 297 298 298 298 303 300 299 299 301 303 301 299 300 301 302 301 307 308 309 311 310 310 310 309 311 304 304 307 310 306 304 304 305 304 306 306 305 305 306 305
303 301 300 297 298 299 300 302 303 303 298 291 293 298 299 298 299 303 303 301 301 300 300 300 302 300 299 300 300 301 307 311 309 311 311 310 311 307 306 303 303 305 308 305 304 303 304 303 305 306 305 305 305 305
303 301 299 298 298 299 300 302 302 300 294 292 298 300 304 303 304 303 301 303 301 301 301 302 302 301 300 300 302 303 308 312 313 312 311 308 310 303 301 301 301 303 304 303 303 305 305 305 307 306 306 306 305 303
303 300 299 297 299 300 302 302 301 297 291 293 294 298 297 302 301 297 299 306 303 303 301 301 301 300 298 301 302 306 310 309 314 313 313 310 305 302 301 301 301 302 303 304 302 304 304 304 306 305 305 305 302 302
303 300 298 297 298 301 302 301 298 291 292 293 295 296 297 298 299 301 301 306 304 304 303 301 299 299 297 298 307 305 309 311 314 306 312 307 303 301 300 300 300 301 307 303 302 303 304 303 305 304 304 304 302 301
302 300 298 298 299 301 301 300 293 292 294 297 297 299 299 299 301 304 303 301 299 298 299 298 295 293 294 302 300 305 309 309 307 306 309 305 301 300 299 298 299 301 306 302 303 303 302 303 304 303 303 302 301 301
302 299 298 299 300 301 300 295 291 293 296 299 302 298 300 301 302 298 297 296 295 297 296 292 293 294 293 297 303 305 308 304 301 301 302 302 299 298 298 298 299 302 308 303 302 303 302 303 303 303 302 302 302 301
300 299 299 299 301 301 297 292 292 294 297 301 300 298 300 298 295 295 294 294 294 292 292 293 293 295 300 303 301 302 299 298 301 297 301 299 297 297 296 297 298 301 308 305 301 302 302 303 303 302 302 301 301 301
300 300 300 301 300 299 293 293 294 295 298 301 300 298 296 295 295 295 294 295 293 293 291 294 299 300 301 297 295 300 293 297 296 299 298 297 297 296 294 296 298 303 308 308 302 302 302 302 302 302 301 300 300 300
300 299 300 300 298 294 292 294 296 298 301 301 299 296 295 294 295 294 294 296 294 294 296 297 300 299 298 293 296 297 292 295 299 296 296 296 296 296 295 297 299 303 309 307 308 304 302 302 302 302 301 300 299 299
299 300 300 298 294 294 294 295 299 301 301 298 297 296 294 295 296 297 295 294 295 295 294 299 295 296 298 291 292 290 297 297 295 295 295 296 297 296 296 296 298 300 301 301 305 306 304 301 300 301 301 301 300 299
300 299 298 297 292 295 297 296 297 301 300 297 296 295 296 295 294 294 293 294 293 293 293 293 295 291 291 291 294 295 293 294 295 295 295 295 295 295 294 295 296 297 298 298 300 300 304 303 302 301 301 301 300 299
300 298 296 292 296 298 301 300 299 297 298 298 296 297 295 295 293 292 292 291 291 292 294 294 294 293 292 293 296 293 293 294 294 296 294 294 294 294 294 295 295 295 295 296 297 297 299 300 300 303 302 300 300 299
294 293 294 294 293 294 297 298 297 297 296 296 297 297 295 294 294 293 292 290 292 292 292 291 292 293 296 295 294 294 294 293 293 295 295 293 292 293 293 293 294 294 294 294 294 295 296 297 297 298 302 300 300 299
294 293 291 291 295 296 296 297 297 296 296 297 297 297 296 296 295 293 291 292 292 290 290 292 294 297 292 293 295 293 292 292 291 294 295 293 290 291 292 293 293 293 292 292 293 294 294 295 295 297 300 300 300 299
293 294 295 296 299 297 297 297 297 297 298 297 297 298 298 296 294 292 293 289 287 290 293 294 295 295 294 295 292 289 289 290 290 292 292 292 289 289 290 291 292 291 290 290 291 292 292 292 294 295 298 301 300 300
295 297 298 299 297 297 298 297 297 297 297 296 299 300 299 296 293 293 293 288 287 291 292 294 294 292 293 293 288 287 287 287 288 291 291 290 288 288 288 290 290 290 288 289 289 289 290 291 291 293 295 298 299 300
296 296 295 294 298 298 299 299 299 299 299 298 300 299 298 295 294 295 295 288 289 289 290 292 292 292 289 288 286 286 286 286 286 286 288 286 286 286 286 287 288 289 287 287 288 288 289 289 290 290 292 294 296 297
294 295 296 298 298 299 300 300 300 299 299 299 300 298 295 296 299 299 295 289 287 288 288 290 288 288 287 288 285 285 285 285 287 286 285 285 284 284 284 285 286 287 287 286 287 287 287 287 288 289 290 291 293 296
293 295 295 296 298 299 298 298 298 298 300 300 299 298 297 297 298 294 290 288 288 291 293 293 291 290 288 287 286 286 285 285 285 284 284 284 283 283 284 284 284 285 286 285 285 285 285 285 285 286 288 289 291 293
295 296 297 296 296 296 299 298 299 299 298 299 299 300 299 298 295 291 290 291 293 293 292 292 292 292 289 287 286 286 285 285 284 284 284 283 283 282 282 284 284 284 284 284 283 283 283 283 283 285 287 289 290 292
296 295 296 297 297 297 298 299 299 298 298 299 299 299 296 293 288 288 290 291 292 292 289 288 287 288 286 285 285 284 284 285 284 283 282 281 281 281 281 283 283 282 282 282 283 282 282 283 283 284 285 286 287 289
295 295 296 297 298 299 299 297 297 295 294 294 293 291 290 287 287 289 290 291 290 289 288 287 286 286 285 285 283 283 283 283 283 282 280 280 280 280 281 282 282 282 282 282 282 283 283 282 282 282 283 283 284 285
294 295 297 298 300 299 295 294 294 293 293 291 290 290 289 288 288 287 288 289 289 288 287 286 286 286 285 284 284 282 282 282 282 282 282 281 281 280 280 281 281 282 282 282 281 281 280 279 279 279 279 280 281 282
295 297 298 299 298 296 297 296 294 293 292 292 291 289 288 287 287 286 287 287 287 286 286 286 286 285 285 285 284 284 283 282 282 282 281 281 280 280 279 281 281 281 281 281 281 280 280 279 277 277 277 278 279 279
295 296 297 298 298 299 298 296 293 293 293 293 292 291 288 287 285 285 287 287 288 287 286 285 285 285 284 284 283 282 282 282 281 281 280 279 279 279 278 280 280 280 280 280 279 279 279 279 278 278 278 277 276 277